[[{"header":{"parameterUnit":"m.s-1","parameterCategory":1,"la1":30.2991,"la2":30.254,"lo1":-89.0895,"lo2":-89.0444,"dy":0.0017,"dx":0.0017,"nx":28,"ny":28,"refTime":"2025-03-05T03:00:00:Z","depth":0,"parameterNumber":2,"parameterNumberName":"U-component_of_WINDS"},"data":[0,0,0,0,0,0,0,0,0,0,0,0,0,0,0,0,0,0,0,0,0,0,0,0,0,0,0,0,0,0,0,0,0,0,0,0,0,0,0,0,0,0,0,0,0,0,0,0,0,0,0,0,0,0,0,0,0,0,9.3896,9.3898,0,9.4115,9.4118,9.412,9.4065,9.406,9.4056,9.4052,9.428,9.429,9.4299,0,0,0,0,0,0,0,0,0,0,0,0,0,9.3434,9.3443,9.3896,9.3898,9.3901,9.4115,9.4118,9.4121,9.4065,9.406,9.4055,9.405,9.4276,9.4288,9.43,0,0,0,0,0,0,0,0,0,0,0,0,0,9.3642,9.3445,9.3895,9.3899,9.3902,9.4114,9.4118,9.4121,9.4067,9.406,9.4054,9.4048,9.4272,9.4287,9.4302,9.4525,0,0,9.4348,9.4355,0,0,0,0,0,0,0,0,9.363,9.3659,9.3896,9.3899,9.3903,9.4056,9.4038,9.4257,9.4068,9.4004,9.4052,9.4044,9.4211,9.423,9.4286,9.4535,9.4545,9.435,9.4359,9.4365,9.437,0,0,0,0,0,0,0,9.3616,9.3649,9.3982,9.3899,9.3904,9.3892,9.3914,9.4079,9.4141,9.4009,9.4006,9.4032,9.4211,9.4271,9.4291,9.4548,9.4349,9.4363,9.4372,9.4378,9.4996,9.5003,0,0,0,0,0,0,9.3598,9.3638,9.3975,9.3989,9.3748,9.3905,9.393,9.4013,9.4139,9.4152,9.4038,9.4029,9.4249,9.4273,9.4299,9.457,9.4365,9.4379,9.4388,9.4988,9.4997,9.5005,0,0,0,0,0,0,9.3589,9.3629,9.3967,9.3813,9.3855,9.392,9.4014,9.4021,9.4081,9.416,9.4171,9.4087,9.4245,9.4277,9.447,9.4577,9.4386,9.44,9.498,9.4991,9.5001,9.5113,0,0,0,0,0,0,9.3576,9.3626,9.371,9.3815,9.3863,9.4133,9.402,9.403,9.4107,9.4098,9.421,9.4223,9.4242,9.4447,9.4485,9.4594,9.4412,9.497,9.4985,9.4998,9.51,9.5126,9.5149,0,0,0,0,0,9.3559,9.3732,9.3714,9.3755,9.3969,9.4139,9.4167,9.4185,9.4116,9.4202,9.4253,9.4219,9.4559,9.4467,9.4509,9.4625,9.4964,9.4981,9.4997,9.5089,9.5121,9.5149,0,0,0,0,0,0,9.3639,9.3746,9.3727,9.3939,9.403,9.4129,9.4238,9.4218,9.4331,9.4318,9.4336,9.4362,9.4559,9.4611,9.4507,9.4849,9.4752,9.4777,9.4808,9.4839,9.4863,9.4847,9.4424,0,0,0,0,0,9.3681,9.3808,9.3896,9.4075,9.4121,9.4172,9.4247,9.4253,9.4348,9.4387,9.4452,9.4547,9.4676,9.476,9.4882,9.5107,9.5133,9.5208,9.5232,9.5252,9.5274,9.54,9.5435,9.5059,9.5059,9.5059,0,0,9.3769,9.3844,9.3923,9.4093,9.4164,9.4298,9.4205,9.4349,9.4449,9.4409,9.4595,9.4647,9.4754,9.4964,9.506,9.5014,9.5384,9.5273,9.5288,9.53,9.5421,9.5456,9.5488,9.5071,9.5068,9.5067,0,0,9.3999,9.4067,9.4225,9.4299,9.4408,9.4441,9.4479,9.4582,9.4615,9.4801,9.4775,9.4895,9.5115,9.5193,9.5262,9.5525,9.5499,9.5564,9.5693,9.5816,9.5845,9.5872,9.5968,9.6002,9.5586,9.5587,9.5587,0,9.4095,9.4294,9.4309,9.4457,9.4534,9.4503,9.4664,9.4735,9.488,9.4934,9.4879,9.5157,9.5227,9.5457,9.5521,9.5577,9.5623,9.5552,9.5839,9.5866,9.5891,9.5983,9.6019,9.5594,9.5593,9.5592,9.5592,0,9.4409,9.4548,9.4662,9.4802,9.4892,9.5046,9.5085,9.5174,9.5173,9.5213,9.5405,9.5489,9.5629,9.5683,9.5684,9.5915,9.5883,9.5834,9.5737,9.5934,9.6021,9.6056,9.5604,9.5602,9.56,9.5598,0,0,9.4694,9.4842,9.4884,9.4948,9.5067,9.5176,9.533,9.5466,9.5543,9.5644,9.5776,9.5964,9.592,9.5999,9.6008,9.6115,9.6321,9.6054,9.6056,9.6102,9.6584,9.6621,9.6662,9.6304,9.6311,9.6316,9.6576,0,9.4937,9.5206,9.5225,9.547,9.56,9.5573,9.5708,9.5797,9.5839,9.5956,9.6002,9.6137,9.6068,9.6115,9.622,9.6274,9.6419,9.6255,9.6429,9.6435,9.6404,9.6707,9.6746,9.6986,9.661,9.6615,9.6619,0,9.5255,9.5366,9.5623,9.5727,9.5782,9.5902,9.603,9.6142,9.6244,9.6267,9.6356,9.635,9.6511,9.6408,9.663,9.6519,9.6591,9.6629,9.6639,9.6657,9.654,9.6735,9.7063,9.71,9.6673,9.6668,9.6665,0,9.544,9.5654,9.5836,9.5892,9.6016,9.6102,9.6158,9.6253,9.6335,9.6447,9.6501,9.6631,9.6703,9.6804,9.6836,9.6757,9.7059,9.6957,9.7085,9.7084,9.715,9.7146,9.7497,9.7194,9.7194,9.7193,9.7192,0,9.571,9.5869,9.5922,9.6034,9.6213,9.6234,9.641,9.6461,9.6547,9.667,9.6655,9.6772,9.6805,9.6929,9.6954,9.7137,9.7169,9.7193,9.7199,9.7196,9.7193,9.7244,9.7229,9.7203,9.72,9.7199,9.7197,0,9.5948,9.5989,9.6187,9.6288,9.6318,9.6446,9.6534,9.6643,9.6682,9.6839,9.6878,9.6941,9.7085,9.7126,9.73,9.7317,9.7532,9.7521,9.7498,9.7499,9.7624,9.7613,9.8022,9.8078,9.7737,9.774,9.7743,0,9.6118,9.624,9.6355,9.6437,9.6496,9.6627,9.6711,9.6737,9.6825,9.6951,9.7046,9.7188,9.7304,9.7537,9.7599,9.7733,9.7726,9.7861,9.7746,9.7741,9.7731,9.7724,9.7738,9.7883,9.7886,9.7889,9.7891,0,9.6417,9.6431,9.6552,9.6681,9.6781,9.6883,9.6982,9.705,9.709,9.719,9.7338,9.7427,9.7605,9.7748,9.7884,9.7943,9.7926,9.7927,9.7964,9.7963,9.7945,9.7959,9.7559,9.7918,9.7915,9.7913,9.7912,9.7911,9.6628,9.6736,9.6835,9.697,9.7047,9.714,9.7249,9.7302,9.7425,9.7571,9.7579,9.774,9.7841,9.8021,9.8088,9.8216,9.8176,9.8229,9.8243,9.8256,9.8268,9.7924,9.824,9.824,9.8239,9.8238,9.8238,0,9.6928,9.699,9.7114,9.7253,9.736,9.7333,9.7441,9.7534,9.7675,9.777,9.7884,9.8055,9.8194,9.8268,9.8406,9.8495,9.849,9.853,9.8525,9.854,9.8294,9.8249,9.8532,9.8532,9.8532,9.8531,9.8531,9.8531,9.7097,9.7279,9.7306,9.7527,9.7589,9.7746,9.781,9.7897,9.7973,9.8164,9.8279,9.8326,9.8414,9.8559,9.8686,9.8705,9.8758,9.8803,9.8817,9.8587,9.8557,9.8528,9.8486,9.8814,9.8814,9.9052,9.9054,9.9056]},{"header":{"parameterUnit":"m.s-1","parameterCategory":1,"la1":30.2991,"la2":30.254,"lo1":-89.0895,"lo2":-89.0444,"dy":0.0017,"dx":0.0017,"nx":28,"ny":28,"refTime":"2025-03-05T03:00:00:Z","depth":0,"parameterNumber":3,"parameterNumberName":"V-component_of_WINDS"},"data":[0,0,0,0,0,0,0,0,0,0,0,0,0,0,0,0,0,0,0,0,0,0,0,0,0,0,0,0,0,0,0,0,0,0,0,0,0,0,0,0,0,0,0,0,0,0,0,0,0,0,0,0,0,0,0,0,0,0,-3.24,-3.2401,0,-3.2461,-3.2461,-3.2462,-3.2452,-3.2451,-3.245,-3.2449,-3.2509,-3.2512,-3.2514,0,0,0,0,0,0,0,0,0,0,0,0,0,-3.2275,-3.2278,-3.24,-3.2401,-3.2402,-3.2461,-3.2461,-3.2462,-3.2452,-3.2451,-3.245,-3.2449,-3.2508,-3.2511,-3.2515,0,0,0,0,0,0,0,0,0,0,0,0,0,-3.2332,-3.2278,-3.24,-3.2404,-3.2405,-3.246,-3.2461,-3.2462,-3.2453,-3.2451,-3.245,-3.2448,-3.2507,-3.2511,-3.2515,-3.257,0,0,-3.2527,-3.2528,0,0,0,0,0,0,0,0,-3.2329,-3.2337,-3.2403,-3.2404,-3.2405,-3.2447,-3.2439,-3.2498,-3.2453,-3.2435,-3.2449,-3.2447,-3.249,-3.2495,-3.251,-3.2573,-3.2575,-3.2527,-3.2529,-3.2531,-3.2532,0,0,0,0,0,0,0,-3.2325,-3.2334,-3.2424,-3.2404,-3.2405,-3.2402,-3.2409,-3.2451,-3.247,-3.2436,-3.2435,-3.2443,-3.249,-3.2506,-3.2511,-3.2576,-3.2527,-3.253,-3.2533,-3.2534,-3.2689,-3.269,0,0,0,0,0,0,-3.232,-3.2331,-3.2422,-3.2426,-3.2362,-3.2406,-3.2413,-3.2435,-3.247,-3.2473,-3.2444,-3.2442,-3.25,-3.2507,-3.2513,-3.2581,-3.2531,-3.2535,-3.2537,-3.2687,-3.2689,-3.2691,0,0,0,0,0,0,-3.2317,-3.2328,-3.242,-3.2378,-3.239,-3.241,-3.2435,-3.2437,-3.2453,-3.2476,-3.2479,-3.2457,-3.2499,-3.2508,-3.2556,-3.2582,-3.2536,-3.254,-3.2685,-3.2688,-3.269,-3.2715,0,0,0,0,0,0,-3.2314,-3.2327,-3.2348,-3.2379,-3.2392,-3.2462,-3.2436,-3.244,-3.246,-3.2458,-3.2489,-3.2492,-3.2499,-3.2551,-3.256,-3.2587,-3.2543,-3.2682,-3.2686,-3.2689,-3.2712,-3.2718,-3.2724,0,0,0,0,0,-3.2309,-3.2352,-3.235,-3.2361,-3.2419,-3.2463,-3.2471,-3.2478,-3.2462,-3.2484,-3.2498,-3.2491,-3.2578,-3.2556,-3.2566,-3.2595,-3.2681,-3.2685,-3.2689,-3.271,-3.2717,-3.2724,0,0,0,0,0,0,-3.2323,-3.2356,-3.2353,-3.2408,-3.2433,-3.2462,-3.2489,-3.2486,-3.2516,-3.2513,-3.252,-3.2527,-3.2576,-3.259,-3.2565,-3.265,-3.2627,-3.2634,-3.2639,-3.2647,-3.2653,-3.2648,-3.2546,0,0,0,0,0,-3.2333,-3.2367,-3.2394,-3.2439,-3.2452,-3.2468,-3.2488,-3.2492,-3.2518,-3.2528,-3.2547,-3.2572,-3.2605,-3.2627,-3.2658,-3.2714,-3.2721,-3.2739,-3.2745,-3.275,-3.2755,-3.2787,-3.2796,-3.2704,-3.2704,-3.2704,0,0,-3.2352,-3.2375,-3.2395,-3.2442,-3.2462,-3.2497,-3.2477,-3.2515,-3.2541,-3.2534,-3.2581,-3.2596,-3.2625,-3.2678,-3.2702,-3.2691,-3.2782,-3.2755,-3.2759,-3.2761,-3.2792,-3.2801,-3.2808,-3.2707,-3.2706,-3.2706,0,0,-3.2406,-3.2426,-3.2467,-3.2488,-3.2519,-3.253,-3.254,-3.257,-3.2579,-3.2627,-3.2623,-3.2654,-3.2711,-3.2732,-3.2751,-3.2815,-3.281,-3.2825,-3.2855,-3.2886,-3.2894,-3.29,-3.2924,-3.2932,-3.283,-3.283,-3.283,0,-3.2426,-3.2479,-3.2488,-3.2527,-3.2547,-3.2544,-3.2585,-3.2605,-3.2645,-3.2659,-3.2647,-3.2719,-3.2738,-3.2797,-3.2813,-3.2827,-3.2839,-3.2821,-3.2892,-3.2899,-3.2905,-3.2927,-3.2936,-3.2832,-3.2832,-3.2832,-3.2832,0,-3.2503,-3.254,-3.2569,-3.2609,-3.2633,-3.2673,-3.2687,-3.2711,-3.2713,-3.2726,-3.2775,-3.2798,-3.2835,-3.285,-3.2851,-3.2909,-3.2901,-3.289,-3.2867,-3.2915,-3.2936,-3.2945,-3.2835,-3.2834,-3.2833,-3.2833,0,0,-3.2566,-3.2612,-3.2622,-3.2641,-3.2676,-3.2705,-3.2745,-3.2782,-3.2802,-3.283,-3.2864,-3.2914,-3.2904,-3.2925,-3.2929,-3.2957,-3.3007,-3.2943,-3.2943,-3.2954,-3.3073,-3.3082,-3.3091,-3.3004,-3.3006,-3.3007,-3.3071,0,-3.2624,-3.2695,-3.2705,-3.2768,-3.2803,-3.2801,-3.2836,-3.2861,-3.2874,-3.2906,-3.292,-3.2955,-3.294,-3.2953,-3.298,-3.2995,-3.3031,-3.2991,-3.3036,-3.3038,-3.3029,-3.3102,-3.3111,-3.317,-3.3079,-3.3081,-3.3082,0,-3.27,-3.2732,-3.2799,-3.2831,-3.2846,-3.2877,-3.2913,-3.2943,-3.2972,-3.298,-3.3004,-3.3005,-3.3047,-3.3023,-3.3081,-3.3053,-3.3073,-3.3083,-3.3086,-3.309,-3.3063,-3.3109,-3.3189,-3.3198,-3.3095,-3.3094,-3.3093,0,-3.274,-3.2799,-3.2848,-3.2864,-3.2902,-3.2924,-3.2941,-3.2969,-3.2991,-3.3022,-3.3037,-3.3072,-3.3092,-3.3119,-3.313,-3.3111,-3.3188,-3.3164,-3.3196,-3.3196,-3.3212,-3.3211,-3.3296,-3.3224,-3.3224,-3.3224,-3.3223,0,-3.2804,-3.2845,-3.2866,-3.2896,-3.2943,-3.2953,-3.2999,-3.3015,-3.304,-3.3073,-3.3073,-3.3104,-3.3117,-3.315,-3.3158,-3.3206,-3.3214,-3.3222,-3.3224,-3.3222,-3.3221,-3.3235,-3.3231,-3.3226,-3.3225,-3.3225,-3.3225,0,-3.2856,-3.2872,-3.2925,-3.2957,-3.2967,-3.2999,-3.3027,-3.3056,-3.307,-3.3111,-3.3122,-3.3143,-3.3182,-3.3196,-3.3243,-3.3249,-3.3304,-3.3302,-3.3294,-3.3295,-3.3326,-3.3323,-3.3423,-3.3437,-3.3355,-3.3356,-3.3356,0,-3.2896,-3.2928,-3.2964,-3.2987,-3.3005,-3.3041,-3.3064,-3.3076,-3.31,-3.3137,-3.3162,-3.3201,-3.3233,-3.3295,-3.3314,-3.3351,-3.335,-3.3383,-3.3356,-3.3353,-3.3352,-3.335,-3.3353,-3.3388,-3.3389,-3.3389,-3.339,0,-3.2965,-3.2971,-3.3005,-3.3043,-3.3071,-3.31,-3.3129,-3.3148,-3.3164,-3.3191,-3.3232,-3.3257,-3.3306,-3.3345,-3.3382,-3.34,-3.3398,-3.3398,-3.3408,-3.3406,-3.3401,-3.3405,-3.3308,-3.3396,-3.3395,-3.3395,-3.3395,-3.3394,-3.3012,-3.3041,-3.3072,-3.311,-3.3133,-3.3161,-3.319,-3.3208,-3.3242,-3.3283,-3.3288,-3.3332,-3.3362,-3.3412,-3.3432,-3.3466,-3.3457,-3.347,-3.3474,-3.3477,-3.348,-3.3395,-3.3473,-3.3473,-3.3472,-3.3472,-3.3472,0,-3.3082,-3.3102,-3.3137,-3.3178,-3.3208,-3.3205,-3.3237,-3.3263,-3.3301,-3.333,-3.3362,-3.3409,-3.3447,-3.347,-3.3509,-3.3532,-3.3532,-3.3542,-3.354,-3.3544,-3.3485,-3.3473,-3.3541,-3.3541,-3.3541,-3.3541,-3.3541,-3.3541,-3.3122,-3.3171,-3.3182,-3.3243,-3.3262,-3.3306,-3.3325,-3.335,-3.3373,-3.3426,-3.3458,-3.3473,-3.3499,-3.354,-3.3575,-3.3581,-3.3596,-3.3606,-3.3611,-3.3555,-3.3548,-3.3542,-3.3531,-3.3609,-3.3609,-3.3668,-3.3668,-3.3669]}]]